Regional Weather Roundup
Issued by NWS

Home | Current Version | Previous Version | Graphics & Text | Print | Product List | Glossary On
Versions: 1 2 3 4 5 6 7 8 9 10 11 12 13 14 15 16 17 18 19 20 21 22 23 24 25 26 27 28 29 30 31 32 33 34 35 36 37 38 39 40 41 42 43 44 45 46 47 48 49 50
309
ASUS43 KIND 200859
RWRIN

WEATHER ROUNDUP FOR INDIANA
NATIONAL WEATHER SERVICE INDIANAPOLIS IN
400 AM EST FRI JAN 20 2017

NOTE: "FAIR" INDICATES FEW OR NO CLOUDS BELOW 12,000 FEET WITH NO
SIGNIFICANT WEATHER AND/OR OBSTRUCTIONS TO VISIBILITY.

* - STATION DOES NOT REPORT WEATHER SUCH AS PRECIPITATION OR FOG.

+ - STATION NOT QUALITY CONTROLLED BY THE NATIONAL WEATHER SERVICE.
    USE DATA WITH CAUTION...ESPECIALLY DEWPOINT AND RELATIVE
    HUMIDITY OBSERVATIONS.

INZ001>003-010>013-019-020-201000-
NORTHWEST INDIANA

CITY           SKY/WX    TMP DP  RH WIND       PRES   REMARKS
MONTICELLO +   RAIN      41  40  96 E3        29.60F

$$

LMZ046-743>745-201000-
SOUTHERN LAKE MICHIGAN

STATION/POSITION TIME  TEMP    WIND        PRES    WAVE
                       AIR SEA DIR/SP/G            HT
                 (UTC) (F)     (DEG/KT/KT) (MB)    (FT)
BURNS HARBOR     0840   35      80/  9/ 10 1004.4F
MICHIGAN CITY    0830   36      30/ 11/ 11   N/A

$$

INZ004-005-014>016-021>024-201000-
NORTH CENTRAL INDIANA

CITY           SKY/WX    TMP DP  RH WIND       PRES   REMARKS
GOSHEN         LGT RAIN  38  35  89 E7        29.64S FOG
PERU/GRISSOM   MIX PCPN  41  41 100 E10       29.59F
SOUTH BEND     LGT RAIN  38  38 100 E8        29.65F FOG

$$

INZ006>009-017-018-025>027-201000-
NORTHEAST INDIANA

CITY           SKY/WX    TMP DP  RH WIND       PRES   REMARKS
ANGOLA *+      CLOUDY    36  36 100 E12       29.67F
FORT WAYNE     RAIN      39  36  89 E15       29.63F FOG
KENDALLVILLE + RAIN      36  36 100 E13       29.65F

$$

INZ028-029-035-036-043>045-051>053-201000-
WEST CENTRAL INDIANA

CITY           SKY/WX    TMP DP  RH WIND       PRES   REMARKS
CRAWFORDSVL +  LGT SNOW  43  43 100 CALM      29.59S
LAFAYETTE      LGT RAIN  43  43 100 NE6       29.59F FOG
TERRE HAUTE    RAIN      49  47  93 SW3       29.59S FOG

$$

INZ030>032-037>040-046>048-054>057-064-065-201000-
CENTRAL INDIANA

CITY           SKY/WX    TMP DP  RH WIND       PRES   REMARKS
INDIANAPOLIS   RAIN      45  45 100 SE5       29.59F FOG
-EAGLE CREEK   HVY RAIN  45  44  97 SE3       29.59F FOG
KOKOMO +       LGT RAIN  41  40  96 E7        29.61F FOG
MT COMFORT *+  CLOUDY    43  43 100 CALM      29.60S
SHELBYVILLE    RAIN      46  44  93 CALM      29.59F FOG

$$

INZ033-034-041-042-049-050-058-059-201000-
EAST CENTRAL INDIANA

CITY           SKY/WX    TMP DP  RH WIND       PRES   REMARKS
MUNCIE         LGT RAIN  43  42  97 E6        29.60F FOG

$$

INZ060-061-067>069-081>083-085>088-201000-
SOUTHWEST INDIANA

CITY           SKY/WX    TMP DP  RH WIND       PRES   REMARKS
EVANSVILLE     CLOUDY    55  53  93 SW8       29.64S
HUNTINGBURG *+ CLOUDY    55  54  94 SW7       29.63S

$$

INZ062-063-066-070>080-084-089>092-201000-
SOUTH CENTRAL AND SOUTHEAST INDIANA

CITY           SKY/WX    TMP DP  RH WIND       PRES   REMARKS
BLOOMINGTON    LGT RAIN  47  45  93 CALM      29.60F
MADISON *+     CLOUDY    50  48  93 S6        29.63R
SEYMOUR +      LGT RAIN  48  48 100 CALM      29.61S

$$





USA.gov is the U.S. government's official web portal to all federal, state and local government web resources and services.